W7BTL Weather Reports


time (UTC)temp
C
wind
direction
speed
KPH
gust
KPH
rain 1hr
cm
rain 24hr
cm
rain mn
cm
humidity
%
barometer
mb
20260509004402 23 196 1.6 1.6 0.00 0.00 0.00 58 1013.0
20260509003900 23 193 1.6 3.2 0.00 0.00 0.00 57 1013.0
20260509003358 23 213 0.0 0.0 0.00 0.00 0.00 56 1013.1
20260509002854 24 189 3.2 3.2 0.00 0.00 0.00 54 1012.8
20260509002352 25 175 0.0 0.0 0.00 0.00 0.00 54 1012.6
20260509001850 25 166 1.6 1.6 0.00 0.00 0.00 53 1012.8
20260509001345 25 158 1.6 1.6 0.00 0.00 0.00 52 1012.9
20260509000843 25 157 1.6 1.6 0.00 0.00 0.00 51 1012.9
20260509000341 25 149 1.6 1.6 0.00 0.00 0.00 51 1013.0
20260508235836 25 165 3.2 3.2 0.00 0.00 0.00 51 1012.9
20260508235334 25 220 0.0 0.0 0.00 0.00 0.00 51 1012.7
20260508234831 25 219 0.0 1.6 0.00 0.00 0.00 50 1012.9
20260508234327 26 199 0.0 0.0 0.00 0.00 0.00 50 1012.9
20260508233826 26 184 1.6 1.6 0.00 0.00 0.00 49 1012.8
20260508233325 26 159 0.0 0.0 0.00 0.00 0.00 48 1013.0
20260508232821 27 140 1.6 1.6 0.00 0.00 0.00 47 1013.0
20260508232317 27 178 0.0 0.0 0.00 0.00 0.00 47 1013.1
20260508231816 27 161 0.0 0.0 0.00 0.00 0.00 46 1013.2
20260508231312 28 170 0.0 0.0 0.00 0.00 0.00 45 1013.3
20260508230809 28 179 0.0 0.0 0.00 0.00 0.00 44 1013.1
20260508230305 30 127 1.6 3.2 0.00 0.00 0.00 41 1013.2
20260508225803 31 180 0.0 0.0 0.00 0.00 0.00 39 1013.3
20260508225259 32 137 1.6 1.6 0.00 0.00 0.00 37 1013.2
20260508224757 33 186 1.6 1.6 0.00 0.00 0.00 35 1013.2
20260508224254 33 197 0.0 0.0 0.00 0.00 0.00 34 1013.4
20260508223752 33 194 0.0 0.0 0.00 0.00 0.00 34 1013.7
20260508223249 33 204 0.0 0.0 0.00 0.00 0.00 35 1013.6
20260508222746 33 182 1.6 1.6 0.00 0.00 0.00 34 1013.5
20260508222243 33 138 1.6 1.6 0.00 0.00 0.00 35 1013.8
20260508221740 32 231 0.0 0.0 0.00 0.00 0.00 35 1013.7
20260508221236 32 234 0.0 0.0 0.00 0.00 0.00 36 1013.9
20260508220732 32 235 3.2 3.2 0.00 0.00 0.00 36 1014.0
20260508220229 31 186 0.0 1.6 0.00 0.00 0.00 39 1013.9
20260508215725 30 259 1.6 1.6 0.00 0.00 0.00 40 1013.9
20260508215222 31 243 0.0 0.0 0.00 0.00 0.00 39 1014.1
20260508214719 31 232 3.2 3.2 0.00 0.00 0.00 39 1014.1
20260508214217 31 249 3.2 3.2 0.00 0.00 0.00 39 1014.1
20260508213713 31 205 1.6 1.6 0.00 0.00 0.00 39 1014.0
20260508213209 31 219 1.6 1.6 0.00 0.00 0.00 38 1014.2
20260508212706 30 261 1.6 1.6 0.00 0.00 0.00 40 1014.2
20260508212202 31 253 0.0 0.0 0.00 0.00 0.00 39 1014.1
20260508211658 31 240 3.2 3.2 0.00 0.00 0.00 37 1014.2
20260508211154 32 222 1.6 0.0 0.00 0.00 0.00 36 1014.3
20260508210651 31 211 1.6 1.6 0.00 0.00 0.00 37 1014.2
20260508210148 31 275 1.6 1.6 0.00 0.00 0.00 39 1014.4
20260508205645 31 273 1.6 1.6 0.00 0.00 0.00 38 1014.4
20260508205142 32 292 1.6 1.6 0.00 0.00 0.00 37 1014.6
20260508204638 31 204 0.0 0.0 0.00 0.00 0.00 37 1014.6
20260508204134 31 203 1.6 1.6 0.00 0.00 0.00 38 1014.6
20260508203631 30 111 0.0 0.0 0.00 0.00 0.00 40 1014.6
20260508203126 29 240 1.6 1.6 0.00 0.00 0.00 42 1014.7
20260508202623 30 274 3.2 3.2 0.00 0.00 0.00 41 1014.9
20260508202120 31 162 0.0 0.0 0.00 0.00 0.00 37 1014.9
20260508201617 32 184 0.0 0.0 0.00 0.00 0.00 37 1014.9
20260508201113 32 187 1.6 1.6 0.00 0.00 0.00 36 1015.0
20260508200611 31 184 3.2 1.6 0.00 0.00 0.00 37 1015.3
20260508200106 30 181 1.6 1.6 0.00 0.00 0.00 39 1015.1
20260508195603 30 239 1.6 1.6 0.00 0.00 0.00 40 1015.3
20260508195059 30 246 1.6 1.6 0.00 0.00 0.00 41 1015.3
20260508194556 29 246 3.2 3.2 0.00 0.00 0.00 41 1015.3
20260508194054 28 234 1.6 1.6 0.00 0.00 0.00 43 1015.2
20260508193549 28 236 1.6 1.6 0.00 0.00 0.00 43 1015.2
20260508193047 28 234 1.6 1.6 0.00 0.00 0.00 43 1015.5
20260508192543 28 230 0.0 0.0 0.00 0.00 0.00 44 1015.4
20260508192041 27 230 0.0 0.0 0.00 0.00 0.00 46 1015.6
20260508191537 27 229 1.6 1.6 0.00 0.00 0.00 47 1015.7
20260508191034 27 226 3.2 3.2 0.00 0.00 0.00 45 1015.6
20260508190531 26 212 1.6 1.6 0.00 0.00 0.00 49 1015.6
20260508190027 25 216 1.6 1.6 0.00 0.00 0.00 52 1015.9
20260508185525 24 217 1.6 1.6 0.00 0.00 0.00 54 1016.0
20260508185022 24 210 0.0 0.0 0.00 0.00 0.00 55 1016.0
20260508184520 23 210 0.0 0.0 0.00 0.00 0.00 55 1015.9
20260508184016 23 211 1.6 1.6 0.00 0.00 0.00 57 1016.0
20260508183513 23 156 1.6 1.6 0.00 0.00 0.00 56 1016.1
20260508183008 22 156 0.0 0.0 0.00 0.00 0.00 59 1016.2
20260508182505 22 156 0.0 0.0 0.00 0.00 0.00 63 1016.2
20260508182001 21 156 1.6 1.6 0.00 0.00 0.00 63 1016.1
20260508181457 22 156 1.6 3.2 0.00 0.00 0.00 62 1016.2
20260508180955 21 160 0.0 0.0 0.00 0.00 0.00 64 1016.3
20260508180451 21 186 0.0 0.0 0.00 0.00 0.00 65 1016.1
20260508175948 21 186 0.0 0.0 0.00 0.00 0.00 66 1016.4
20260508175444 21 186 0.0 0.0 0.00 0.00 0.00 66 1016.1
20260508174942 21 205 0.0 0.0 0.00 0.00 0.00 66 1016.5
20260508174440 20 204 0.0 0.0 0.00 0.00 0.00 67 1016.5
20260508173936 20 204 0.0 0.0 0.00 0.00 0.00 67 1016.5
20260508173433 20 204 0.0 0.0 0.00 0.00 0.00 68 1016.5
20260508172929 20 204 0.0 0.0 0.00 0.00 0.00 69 1016.6
20260508172427 20 204 0.0 0.0 0.00 0.00 0.00 71 1016.6
20260508171923 19 204 0.0 0.0 0.00 0.00 0.00 71 1016.5
20260508171419 19 204 0.0 0.0 0.00 0.00 0.00 71 1016.6
20260508170916 19 204 0.0 0.0 0.00 0.00 0.00 72 1016.4
20260508170413 18 204 0.0 0.0 0.00 0.00 0.00 73 1016.4
20260508165910 18 204 0.0 1.6 0.00 0.00 0.00 73 1016.4
20260508165408 18 179 0.0 0.0 0.00 0.00 0.00 74 1016.7
20260508164903 18 185 0.0 0.0 0.00 0.00 0.00 73 1016.4
20260508164401 18 109 0.0 0.0 0.00 0.00 0.00 74 1016.4
20260508163858 18 109 0.0 0.0 0.00 0.00 0.00 74 1016.5
20260508163356 18 109 1.6 1.6 0.00 0.00 0.00 74 1016.4
20260508162851 18 112 0.0 0.0 0.00 0.00 0.00 74 1016.3
20260508162349 18 115 0.0 0.0 0.00 0.00 0.00 75 1016.5
20260508161846 18 111 0.0 0.0 0.00 0.00 0.00 75 1016.4
20260508161343 18 115 1.6 1.6 0.00 0.00 0.00 75 1016.3
20260508160840 18 118 1.6 1.6 0.00 0.00 0.00 75 1016.5
20260508160339 18 107 0.0 0.0 0.00 0.00 0.00 76 1016.5
20260508155835 18 107 1.6 1.6 0.00 0.00 0.00 76 1016.3
20260508155332 18 108 1.6 1.6 0.00 0.00 0.00 76 1016.4
20260508154829 17 79 0.0 0.0 0.00 0.00 0.00 77 1016.2
20260508154327 17 78 0.0 0.0 0.00 0.00 0.00 78 1016.2
20260508153822 17 78 0.0 0.0 0.00 0.00 0.00 78 1016.2
20260508153321 17 70 0.0 0.0 0.00 0.00 0.00 78 1016.2
20260508152816 17 70 0.0 0.0 0.00 0.00 0.00 78 1016.4
20260508152312 17 70 0.0 0.0 0.00 0.00 0.00 78 1016.2
20260508151808 17 70 0.0 0.0 0.00 0.00 0.00 79 1016.5
20260508151306 17 69 0.0 0.0 0.00 0.00 0.00 79 1016.4
20260508150802 17 64 0.0 1.6 0.00 0.00 0.00 79 1016.3
20260508150259 17 60 1.6 1.6 0.00 0.00 0.00 79 1016.5
20260508145755 17 67 0.0 0.0 0.00 0.00 0.00 79 1016.5
20260508145251 17 67 0.0 0.0 0.00 0.00 0.00 79 1016.5
20260508144748 17 67 0.0 0.0 0.00 0.00 0.00 80 1016.4
20260508144246 17 67 0.0 0.0 0.00 0.00 0.00 80 1016.6
20260508143743 17 67 0.0 0.0 0.00 0.00 0.00 81 1016.5
20260508143240 17 69 0.0 0.0 0.00 0.00 0.00 81 1016.4
20260508142736 17 69 0.0 0.0 0.00 0.00 0.00 81 1016.5
20260508142234 17 68 0.0 0.0 0.00 0.00 0.00 81 1016.6
20260508141730 17 64 0.0 0.0 0.00 0.00 0.00 82 1016.3
20260508141228 16 63 0.0 0.0 0.00 0.00 0.00 82 1016.4
20260508140725 16 61 0.0 0.0 0.00 0.00 0.00 82 1016.3
20260508140222 16 95 1.6 1.6 0.00 0.00 0.00 82 1016.1
20260508135718 17 121 1.6 1.6 0.00 0.00 0.00 82 1016.2
20260508135214 16 124 0.0 0.0 0.00 0.00 0.00 82 1016.2
20260508134709 16 124 0.0 0.0 0.00 0.00 0.00 83 1016.3
20260508134207 16 101 0.0 0.0 0.00 0.00 0.00 82 1016.3
20260508133704 16 101 0.0 0.0 0.00 0.00 0.00 82 1016.2
20260508133201 16 101 0.0 0.0 0.00 0.00 0.00 83 1016.2
20260508132659 16 101 0.0 0.0 0.00 0.00 0.00 82 1016.2
20260508132156 16 101 0.0 0.0 0.00 0.00 0.00 82 1016.1
20260508131651 16 103 1.6 3.2 0.00 0.00 0.00 83 1016.1
20260508131148 16 110 0.0 0.0 0.00 0.00 0.00 83 1016.1
20260508130644 16 110 0.0 0.0 0.00 0.00 0.00 83 1015.9
20260508130142 16 110 0.0 0.0 0.00 0.00 0.00 83 1015.8
20260508125637 16 110 0.0 0.0 0.00 0.00 0.00 83 1015.8
20260508125134 16 104 1.6 1.6 0.00 0.00 0.00 83 1015.7
20260508124632 16 145 0.0 0.0 0.00 0.00 0.00 82 1015.7
20260508124129 16 146 0.0 0.0 0.00 0.00 0.00 82 1015.8
20260508123628 16 146 0.0 0.0 0.00 0.00 0.00 83 1015.9
20260508123125 16 146 0.0 0.0 0.00 0.00 0.00 83 1015.8
20260508122620 16 146 0.0 0.0 0.00 0.00 0.00 83 1015.7
20260508122118 16 146 0.0 0.0 0.00 0.00 0.00 83 1015.7
20260508121616 16 146 0.0 0.0 0.00 0.00 0.00 83 1015.5
20260508121114 16 146 0.0 0.0 0.00 0.00 0.00 83 1015.6
20260508120611 16 146 0.0 0.0 0.00 0.00 0.00 83 1015.7
20260508120110 16 146 0.0 0.0 0.00 0.00 0.00 83 1015.3
20260508115606 16 146 0.0 0.0 0.00 0.00 0.00 82 1015.5
20260508115103 16 146 0.0 0.0 0.00 0.00 0.00 83 1015.7
20260508114600 16 146 0.0 0.0 0.00 0.00 0.00 83 1015.5
20260508114056 16 145 0.0 0.0 0.00 0.00 0.00 83 1015.7
20260508113554 16 145 0.0 0.0 0.00 0.00 0.00 83 1015.7
20260508113052 16 145 0.0 0.0 0.00 0.00 0.00 83 1015.6
20260508112548 16 145 0.0 0.0 0.00 0.00 0.00 83 1015.6
20260508112045 16 145 0.0 0.0 0.00 0.00 0.00 83 1015.6
20260508111542 16 145 0.0 0.0 0.00 0.00 0.00 83 1015.3
20260508111039 16 145 0.0 0.0 0.00 0.00 0.00 83 1015.5
20260508110537 16 145 0.0 0.0 0.00 0.00 0.00 83 1015.6
20260508110032 16 145 0.0 0.0 0.00 0.00 0.00 83 1015.5
20260508105527 16 145 0.0 0.0 0.00 0.00 0.00 83 1015.6
20260508105025 16 145 0.0 0.0 0.00 0.00 0.00 84 1015.5
20260508104523 16 145 0.0 0.0 0.00 0.00 0.00 83 1015.5
20260508104019 16 145 0.0 0.0 0.00 0.00 0.00 83 1015.5
20260508103516 16 145 0.0 0.0 0.00 0.00 0.00 84 1015.3
20260508103013 16 145 0.0 0.0 0.00 0.00 0.00 84 1015.6
20260508102511 16 145 0.0 0.0 0.00 0.00 0.00 83 1015.6
20260508102009 16 145 0.0 0.0 0.00 0.00 0.00 83 1015.4
20260508101506 16 144 0.0 0.0 0.00 0.00 0.00 83 1015.4
20260508101002 16 144 0.0 0.0 0.00 0.00 0.00 83 1015.4
20260508100501 16 144 0.0 0.0 0.00 0.00 0.00 83 1015.5
20260508095957 16 145 0.0 0.0 0.00 0.00 0.00 83 1015.6
20260508095455 16 145 0.0 0.0 0.00 0.00 0.00 83 1015.6
20260508094951 16 145 0.0 0.0 0.00 0.00 0.00 83 1015.7
20260508094448 16 145 0.0 0.0 0.00 0.00 0.00 82 1015.7
20260508093945 16 145 0.0 0.0 0.00 0.00 0.00 83 1015.8
20260508093442 16 145 0.0 0.0 0.00 0.00 0.00 82 1015.7
20260508092940 16 141 0.0 0.0 0.00 0.00 0.00 83 1015.5
20260508092437 16 139 0.0 0.0 0.00 0.00 0.00 82 1015.5
20260508091936 16 139 0.0 0.0 0.00 0.00 0.00 82 1015.7
20260508091432 16 139 1.6 1.6 0.00 0.00 0.00 82 1015.7
20260508090930 16 121 0.0 0.0 0.00 0.00 0.00 83 1015.7
20260508090428 16 122 1.6 1.6 0.00 0.00 0.00 83 1015.8
20260508085923 16 121 0.0 0.0 0.00 0.00 0.00 83 1015.9
20260508085421 16 121 1.6 1.6 0.00 0.00 0.00 84 1016.0
20260508084917 16 167 0.0 0.0 0.00 0.00 0.00 85 1015.9
20260508084414 16 167 0.0 0.0 0.00 0.00 0.00 85 1015.8
20260508083912 16 167 0.0 0.0 0.00 0.00 0.00 85 1015.9
20260508083409 16 167 0.0 0.0 0.00 0.00 0.00 85 1015.9
20260508082908 16 167 0.0 0.0 0.00 0.00 0.00 85 1016.0
20260508082406 16 167 0.0 0.0 0.00 0.00 0.00 85 1016.1
20260508081904 16 170 0.0 1.6 0.00 0.00 0.00 86 1016.1
20260508081401 16 171 0.0 0.0 0.00 0.00 0.00 87 1016.1
20260508080857 15 171 0.0 0.0 0.00 0.00 0.00 88 1016.1
20260508080355 15 172 0.0 1.6 0.00 0.00 0.00 88 1016.2
20260508075851 15 172 1.6 1.6 0.00 0.00 0.00 88 1016.1
20260508075349 15 172 0.0 0.0 0.00 0.00 0.00 88 1016.1
20260508074846 15 178 0.0 0.0 0.00 0.00 0.00 88 1016.2
20260508074343 15 179 0.0 0.0 0.00 0.00 0.00 88 1016.1
20260508073840 15 179 0.0 0.0 0.00 0.00 0.00 88 1016.3
20260508073338 15 179 0.0 0.0 0.00 0.00 0.00 88 1016.2
20260508072834 15 178 0.0 0.0 0.00 0.00 0.00 88 1016.1
20260508072331 15 178 0.0 0.0 0.00 0.00 0.00 88 1016.3
20260508071828 16 178 0.0 0.0 0.00 0.00 0.00 88 1016.4
20260508071327 16 178 0.0 1.6 0.00 0.00 0.00 88 1016.1
20260508070824 16 180 0.0 0.0 0.00 0.00 0.00 88 1016.2
20260508070322 16 180 0.0 0.0 0.00 0.00 0.00 88 1016.2
20260508065819 16 194 0.0 0.0 0.00 0.00 0.00 87 1016.2
20260508065317 16 194 0.0 0.0 0.00 0.00 0.00 87 1016.2
20260508064815 16 195 3.2 3.2 0.00 0.00 0.00 87 1016.1
20260508064312 16 124 0.0 0.0 0.00 0.00 0.00 87 1016.0
20260508063809 16 123 0.0 0.0 0.00 0.00 0.00 87 1016.0
20260508063308 16 120 0.0 1.6 0.00 0.00 0.00 87 1016.0
20260508062804 16 120 0.0 0.0 0.00 0.00 0.00 86 1015.9
20260508062305 16 116 0.0 0.0 0.00 0.00 0.00 86 1015.8
20260508061759 16 117 1.6 1.6 0.00 0.00 0.00 85 1015.8
20260508061256 16 117 0.0 0.0 0.00 0.00 0.00 84 1016.1
20260508060752 16 117 1.6 1.6 0.00 0.00 0.00 84 1015.8
20260508060250 16 138 1.6 1.6 0.00 0.00 0.00 83 1016.0
20260508055745 16 151 1.6 1.6 0.00 0.00 0.00 83 1016.0
20260508055243 16 158 0.0 0.0 0.00 0.00 0.00 83 1016.0
20260508054739 16 160 0.0 0.0 0.00 0.00 0.00 83 1016.0
20260508054237 16 160 0.0 0.0 0.00 0.00 0.00 82 1016.1
20260508053734 16 209 0.0 0.0 0.00 0.00 0.00 82 1015.9
20260508053231 16 209 0.0 0.0 0.00 0.00 0.00 81 1016.1
20260508052728 16 209 0.0 0.0 0.00 0.00 0.00 79 1015.9
20260508052225 16 209 0.0 0.0 0.00 0.00 0.00 79 1015.8
20260508051721 16 209 0.0 0.0 0.00 0.00 0.00 79 1016.0
20260508051217 16 209 0.0 0.0 0.00 0.00 0.00 79 1016.0
20260508050714 16 209 0.0 0.0 0.00 0.00 0.00 79 1015.8
20260508050211 16 209 0.0 0.0 0.00 0.00 0.00 79 1015.7
20260508045706 16 209 0.0 0.0 0.00 0.00 0.00 79 1015.7
20260508045205 16 209 0.0 0.0 0.00 0.00 0.00 78 1015.7
20260508044701 17 209 0.0 0.0 0.00 0.00 0.00 78 1015.8
20260508044158 17 209 0.0 0.0 0.00 0.00 0.00 78 1015.6
20260508043653 17 209 0.0 0.0 0.00 0.00 0.00 78 1015.5
20260508043152 17 209 0.0 0.0 0.00 0.00 0.00 78 1015.5
20260508042648 17 209 0.0 0.0 0.00 0.00 0.00 77 1015.7
20260508042146 17 209 0.0 0.0 0.00 0.00 0.00 77 1015.3
20260508041642 17 209 0.0 0.0 0.00 0.00 0.00 76 1015.3
20260508041139 17 209 0.0 0.0 0.00 0.00 0.00 76 1015.2
20260508040635 17 209 0.0 0.0 0.00 0.00 0.00 75 1015.1
20260508040133 17 209 0.0 0.0 0.00 0.00 0.00 75 1015.1
20260508035630 17 209 0.0 0.0 0.00 0.00 0.00 74 1015.2
20260508035127 17 209 0.0 0.0 0.00 0.00 0.00 74 1015.0
20260508034624 17 209 0.0 0.0 0.00 0.00 0.00 74 1015.1
20260508034121 17 209 0.0 0.0 0.00 0.00 0.00 74 1015.0
20260508033618 18 209 0.0 0.0 0.00 0.00 0.00 73 1014.9
20260508033117 18 209 0.0 0.0 0.00 0.00 0.00 73 1014.9
20260508032613 18 209 0.0 1.6 0.00 0.00 0.00 73 1015.0
20260508032110 18 209 0.0 0.0 0.00 0.00 0.00 73 1014.9
20260508031607 18 209 1.6 1.6 0.00 0.00 0.00 72 1014.7
20260508031103 18 209 0.0 0.0 0.00 0.00 0.00 71 1014.4
20260508030559 18 209 0.0 0.0 0.00 0.00 0.00 71 1014.4
20260508030058 18 210 0.0 0.0 0.00 0.00 0.00 70 1014.6
20260508025554 19 210 0.0 0.0 0.00 0.00 0.00 69 1014.3
20260508025051 19 210 0.0 0.0 0.00 0.00 0.00 68 1014.3
20260508024547 19 210 1.6 1.6 0.00 0.00 0.00 67 1014.2
20260508024044 20 210 1.6 1.6 0.00 0.00 0.00 66 1014.3
20260508023540 20 212 0.0 0.0 0.00 0.00 0.00 65 1014.0
20260508023038 20 212 0.0 0.0 0.00 0.00 0.00 64 1013.9
20260508022533 20 212 0.0 0.0 0.00 0.00 0.00 63 1013.9
20260508022031 20 212 0.0 0.0 0.00 0.00 0.00 62 1014.0
20260508021526 20 212 0.0 0.0 0.00 0.00 0.00 61 1013.8
20260508021022 21 217 0.0 1.6 0.00 0.00 0.00 60 1013.7
20260508020521 21 217 0.0 0.0 0.00 0.00 0.00 60 1013.8
20260508020018 21 214 1.6 3.2 0.00 0.00 0.00 59 1013.7
20260508015515 21 196 1.6 1.6 0.00 0.00 0.00 58 1013.7
20260508015012 21 205 1.6 1.6 0.00 0.00 0.00 56 1013.7
20260508014508 22 190 0.0 1.6 0.00 0.00 0.00 56 1013.7
20260508014005 22 191 1.6 1.6 0.00 0.00 0.00 54 1013.7
20260508013501 22 202 0.0 0.0 0.00 0.00 0.00 55 1013.6
20260508012958 22 208 0.0 0.0 0.00 0.00 0.00 55 1013.5
20260508012455 22 209 0.0 0.0 0.00 0.00 0.00 53 1013.6
20260508011953 23 207 1.6 1.6 0.00 0.00 0.00 53 1013.4
20260508011451 23 204 0.0 0.0 0.00 0.00 0.00 53 1013.5
20260508010948 23 207 0.0 0.0 0.00 0.00 0.00 53 1013.6
20260508010445 23 207 1.6 1.6 0.00 0.00 0.00 52 1013.6
20260508005942 23 209 0.0 0.0 0.00 0.00 0.00 52 1013.6
20260508005438 23 194 0.0 0.0 0.00 0.00 0.00 51 1013.6
20260508004934 24 192 1.6 1.6 0.00 0.00 0.00 51 1013.5
20260508004431 24 196 0.0 0.0 0.00 0.00 0.00 51 1013.6